KF7OVD-WX Weather Reports


time (UTC)temp
C
wind
direction
speed
KPH
gust
KPH
rain 1hr
cm
rain 24hr
cm
rain mn
cm
humidity
%
barometer
mb
20260502130516 -3 0.0 0.0 0.00 0.00 0.00 76 1025.3
20260502123530 -3 0.0 0.0 0.00 0.00 0.00 77 1025.1
20260502123028 -3 0.0 0.0 0.00 0.00 0.00 75 1025.1
20260502122527 -3 0.0 0.0 0.00 0.00 0.00 75 1025.1
20260502122024 -3 0.0 0.0 0.00 0.00 0.00 76 1025.1
20260502121603 -3 0.0 0.0 0.00 0.00 0.00 74 1025.1
20260502121041 -3 0.0 0.0 0.00 0.00 0.00 74 1025.1
20260502120538 -3 0.0 0.0 0.00 0.00 0.00 74 1025.1
20260502115533 -3 0.0 0.0 0.00 0.00 0.00 74 1025.1
20260502115031 -3 0.0 0.0 0.00 0.00 0.00 74 1025.1
20260502114529 -3 0.0 0.0 0.00 0.00 0.00 74 1025.1
20260502114027 -3 0.0 0.0 0.00 0.00 0.00 74 1025.1
20260502113525 -3 0.0 0.0 0.00 0.00 0.00 74 1025.1
20260502113024 -3 0.0 0.0 0.00 0.00 0.00 74 1025.1
20260502112522 -3 0.0 0.0 0.00 0.00 0.00 73 1025.1
20260502112020 -3 0.0 0.0 0.00 0.00 0.00 73 1025.1
20260502111518 -3 0.0 0.0 0.00 0.00 0.00 74 1025.1
20260502111016 -3 0.0 0.0 0.00 0.00 0.00 74 1025.1
20260502110532 -3 0.0 0.0 0.00 0.00 0.00 74 1025.1
20260502110023 -3 225 0.0 1.6 0.00 0.00 0.00 73 1025.3
20260502105521 -2 0.0 0.0 0.00 0.00 0.00 72 1025.3
20260502105019 -2 0.0 0.0 0.00 0.00 0.00 72 1025.3
20260502104537 -2 0.0 0.0 0.00 0.00 0.00 72 1025.1
20260502104016 -2 0.0 0.0 0.00 0.00 0.00 72 1025.1
20260502103520 -2 0.0 0.0 0.00 0.00 0.00 72 1025.1
20260502103019 -2 0.0 0.0 0.00 0.00 0.00 71 1025.1
20260502102516 -2 0.0 0.0 0.00 0.00 0.00 69 1025.1
20260502102015 -2 0.0 0.0 0.00 0.00 0.00 69 1025.1
20260502101531 -2 0.0 0.0 0.00 0.00 0.00 68 1025.1
20260502101030 -2 0.0 0.0 0.00 0.00 0.00 69 1025.1
20260502100528 -2 0.0 0.0 0.00 0.00 0.00 70 1025.1
20260502091529 -1 0.0 0.0 0.00 0.00 0.00 67 1025.1
20260502091026 -1 0.0 0.0 0.00 0.00 0.00 66 1025.1
20260502090525 -1 0.0 0.0 0.00 0.00 0.00 65 1025.1
20260502071529 0 0.0 0.0 0.00 0.00 0.00 60 1025.1
20260502071025 0 0.0 0.0 0.00 0.00 0.00 60 1025.1
20260502070522 0 0.0 0.0 0.00 0.00 0.00 59 1025.1
20260502070020 0 0.0 0.0 0.00 0.00 0.00 59 1024.9
20260502065519 1 0.0 0.0 0.00 0.00 0.00 59 1024.9
20260502065017 1 0.0 0.0 0.00 0.00 0.00 59 1024.9
20260502064515 1 0.0 0.0 0.00 0.00 0.00 60 1024.8
20260502064032 1 0.0 0.0 0.00 0.00 0.00 58 1024.8
20260502063530 1 0.0 0.0 0.00 0.00 0.00 58 1024.8
20260502063028 1 0.0 0.0 0.00 0.00 0.00 58 1024.8
20260502062524 1 0.0 0.0 0.00 0.00 0.00 59 1024.8
20260502062023 1 0.0 0.0 0.00 0.00 0.00 59 1024.7
20260502061522 1 0.0 0.0 0.00 0.00 0.00 59 1024.7
20260502061020 1 0.0 0.0 0.00 0.00 0.00 58 1024.7
20260502060519 2 0.0 0.0 0.00 0.00 0.00 57 1024.7
20260502060018 2 0.0 0.0 0.00 0.00 0.00 58 1024.6
20260502055515 2 0.0 0.0 0.00 0.00 0.00 57 1024.6
20260502055030 2 0.0 0.0 0.00 0.00 0.00 58 1024.6
20260502054527 2 0.0 0.0 0.00 0.00 0.00 57 1024.5
20260502054024 2 0.0 0.0 0.00 0.00 0.00 57 1024.5
20260502053602 2 0.0 0.0 0.00 0.00 0.00 55 1024.5
20260502053019 2 0.0 0.0 0.00 0.00 0.00 55 1024.5
20260502052516 2 0.0 0.0 0.00 0.00 0.00 52 1024.5
20260502052101 2 0.0 0.0 0.00 0.00 0.00 50 1024.5
20260502051519 3 0.0 0.0 0.00 0.00 0.00 50 1024.5
20260502051016 3 0.0 0.0 0.00 0.00 0.00 51 1024.3
20260502050532 3 0.0 0.0 0.00 0.00 0.00 51 1024.3
20260502050029 3 0.0 0.0 0.00 0.00 0.00 51 1024.3
20260502045527 3 0.0 0.0 0.00 0.00 0.00 52 1024.3
20260502045024 3 0.0 0.0 0.00 0.00 0.00 51 1024.2
20260502044542 4 0.0 0.0 0.00 0.00 0.00 50 1024.1
20260502044039 4 0.0 0.0 0.00 0.00 0.00 51 1024.1
20260502043517 5 0.0 0.0 0.00 0.00 0.00 51 1024.0
20260502043033 5 0.0 0.0 0.00 0.00 0.00 50 1024.0
20260502042530 5 158 0.0 1.6 0.00 0.00 0.00 50 1023.8
20260502042047 5 180 0.0 3.2 0.00 0.00 0.00 50 1023.7
20260502041525 5 180 0.0 3.2 0.00 0.00 0.00 50 1023.7
20260502041023 5 158 0.0 1.6 0.00 0.00 0.00 49 1023.5
20260502040520 6 0.0 0.0 0.00 0.00 0.00 49 1023.5
20260502040018 6 138 1.6 3.2 0.00 0.00 0.00 48 1023.4
20260502035556 6 0.0 0.0 0.00 0.00 0.00 47 1023.3
20260502035051 7 0.0 0.0 0.00 0.00 0.00 46 1023.3
20260502034528 7 0.0 0.0 0.00 0.00 0.00 46 1023.2
20260502034106 7 158 0.0 1.6 0.00 0.00 0.00 45 1023.2
20260502033523 7 0.0 0.0 0.00 0.00 0.00 44 1022.8
20260502033021 8 151 1.6 3.2 0.00 0.00 0.00 44 1022.8
20260502032519 8 123 0.0 1.6 0.00 0.00 0.00 44 1022.7
20260502032016 8 0.0 0.0 0.00 0.00 0.00 45 1022.5
20260502031520 8 113 0.0 1.6 0.00 0.00 0.00 43 1022.5
20260502031017 9 0 0.0 1.6 0.00 0.00 0.00 41 1022.2
20260502030535 10 0.0 0.0 0.00 0.00 0.00 39 1022.2
20260502030031 10 0.0 0.0 0.00 0.00 0.00 38 1022.0
20260502025649 10 0.0 0.0 0.00 0.00 0.00 37 1022.0
20260502025026 10 0.0 0.0 0.00 0.00 0.00 36 1022.0
20260502024524 11 0.0 0.0 0.00 0.00 0.00 35 1021.9
20260502024041 11 0.0 0.0 0.00 0.00 0.00 34 1021.9
20260502023519 12 0.0 0.0 0.00 0.00 0.00 34 1021.9
20260502023017 12 0.0 0.0 0.00 0.00 0.00 35 1021.9
20260502022515 13 0.0 0.0 0.00 0.00 0.00 34 1021.8
20260502022030 13 0.0 0.0 0.00 0.00 0.00 33 1021.8
20260502021528 14 0.0 0.0 0.00 0.00 0.00 32 1021.8
20260502021025 15 0.0 0.0 0.00 0.00 0.00 32 1021.8
20260502020523 16 0.0 0.0 0.00 0.00 0.00 31 1021.8
20260502020021 16 0.0 0.0 0.00 0.00 0.00 31 1021.7
20260502015519 17 0.0 0.0 0.00 0.00 0.00 30 1021.6
20260502015016 17 0.0 0.0 0.00 0.00 0.00 31 1021.6
20260502014552 16 0.0 0.0 0.00 0.00 0.00 33 1021.6
20260502014029 17 0.0 0.0 0.00 0.00 0.00 29 1021.6
20260502013527 17 0 0.0 1.6 0.00 0.00 0.00 28 1021.6
20260502013025 18 45 0.0 3.2 0.00 0.00 0.00 27 1021.6
20260502012542 18 23 1.6 3.2 0.00 0.00 0.00 27 1021.6
20260502012020 18 0.0 0.0 0.00 0.00 0.00 25 1021.6
20260502011517 18 37 1.6 3.2 0.00 0.00 0.00 23 1021.6
20260502011015 18 26 1.6 3.2 0.00 0.00 0.00 22 1021.6
20260502010519 19 15 0.0 3.2 0.00 0.00 0.00 24 1021.6
20260502010017 19 23 0.0 3.2 0.00 0.00 0.00 25 1021.4
20260502005532 19 31 3.2 4.8 0.00 0.00 0.00 23 1021.4
20260502005030 20 44 3.2 4.8 0.00 0.00 0.00 22 1021.4
20260502004528 20 29 3.2 3.2 0.00 0.00 0.00 21 1021.4
20260502004025 20 36 4.8 6.4 0.00 0.00 0.00 21 1021.4
20260502003523 20 45 3.2 4.8 0.00 0.00 0.00 21 1021.4
20260502003021 20 58 3.2 4.8 0.00 0.00 0.00 18 1021.4
20260502002518 20 32 3.2 3.2 0.00 0.00 0.00 18 1021.4
20260502002016 20 36 4.8 6.4 0.00 0.00 0.00 20 1021.4
20260502001612 20 47 3.2 4.8 0.00 0.00 0.00 20 1021.4
20260502001030 21 47 1.6 4.8 0.00 0.00 0.00 19 1021.6
20260502000607 21 55 4.8 6.4 0.00 0.00 0.00 19 1021.6
20260502000025 21 41 4.8 6.4 0.00 0.00 0.00 19 1021.4
20260501235523 21 23 4.8 8.0 0.00 0.00 0.00 19 1021.3
20260501235021 21 24 3.2 4.8 0.00 0.00 0.00 20 1021.3
20260501234518 21 53 3.2 4.8 0.00 0.00 0.00 19 1021.3
20260501234016 21 44 3.2 4.8 0.00 0.00 0.00 19 1021.3
20260501233531 21 49 3.2 4.8 0.00 0.00 0.00 19 1021.2
20260501233029 21 35 3.2 4.8 0.00 0.00 0.00 20 1021.2
20260501232527 22 49 1.6 6.4 0.00 0.00 0.00 20 1021.2
20260501232024 21 55 4.8 8.0 0.00 0.00 0.00 19 1021.2
20260501231522 22 36 3.2 8.0 0.00 0.00 0.00 19 1021.2
20260501231019 22 47 3.2 8.0 0.00 0.00 0.00 19 1021.0
20260501230517 21 150 4.8 6.4 0.00 0.00 0.00 20 1021.0
20260501230055 22 72 6.4 11.3 0.00 0.00 0.00 18 1021.1
20260501225539 22 23 4.8 6.4 0.00 0.00 0.00 20 1021.2
20260501225057 22 46 4.8 8.0 0.00 0.00 0.00 19 1021.2
20260501224532 22 48 3.2 8.0 0.00 0.00 0.00 19 1021.3
20260501224031 22 69 4.8 8.0 0.00 0.00 0.00 19 1021.3
20260501223528 21 66 4.8 6.4 0.00 0.00 0.00 17 1021.4
20260501223026 22 78 4.8 8.0 0.00 0.00 0.00 18 1021.4
20260501222544 22 6 4.8 8.0 0.00 0.00 0.00 20 1021.5
20260501222021 22 88 8.0 11.3 0.00 0.00 0.00 18 1021.6
20260501221519 23 29 3.2 6.4 0.00 0.00 0.00 20 1021.6
20260501221157 22 40 3.2 6.4 0.00 0.00 0.00 20 1021.6
20260501220533 22 73 8.0 9.7 0.00 0.00 0.00 19 1021.6
20260501220031 23 66 8.0 14.5 0.00 0.00 0.00 18 1021.6
20260501215529 23 19 3.2 4.8 0.00 0.00 0.00 19 1021.6
20260501215026 23 344 3.2 8.0 0.00 0.00 0.00 20 1021.6
20260501214524 22 33 4.8 6.4 0.00 0.00 0.00 21 1021.9
20260501214042 22 44 6.4 8.0 0.00 0.00 0.00 19 1021.9
20260501213520 22 55 3.2 8.0 0.00 0.00 0.00 20 1022.0
20260501213018 22 2 4.8 11.3 0.00 0.00 0.00 21 1022.0
20260501212515 21 355 3.2 6.4 0.00 0.00 0.00 21 1022.1
20260501212030 23 20 4.8 6.4 0.00 0.00 0.00 21 1022.1
20260501211549 22 68 1.6 4.8 0.00 0.00 0.00 21 1022.1
20260501211107 21 20 4.8 8.0 0.00 0.00 0.00 21 1022.2
20260501210524 21 24 4.8 6.4 0.00 0.00 0.00 21 1022.2
20260501210022 21 41 3.2 4.8 0.00 0.00 0.00 22 1022.3
20260501205520 23 66 6.4 9.7 0.00 0.00 0.00 20 1022.4
20260501205018 23 85 6.4 9.7 0.00 0.00 0.00 20 1022.4
20260501204516 23 23 4.8 8.0 0.00 0.00 0.00 21 1022.4
20260501204020 22 39 6.4 9.7 0.00 0.00 0.00 20 1022.4
20260501203518 22 92 4.8 11.3 0.00 0.00 0.00 20 1022.4
20260501203016 22 87 8.0 11.3 0.00 0.00 0.00 20 1022.4
20260501202532 22 43 4.8 6.4 0.00 0.00 0.00 21 1022.4
20260501202030 22 86 8.0 11.3 0.00 0.00 0.00 20 1022.4
20260501201628 22 38 4.8 6.4 0.00 0.00 0.00 22 1022.4
20260501201026 23 15 3.2 8.0 0.00 0.00 0.00 22 1022.5
20260501200544 22 53 3.2 6.4 0.00 0.00 0.00 21 1022.5
20260501200022 22 352 4.8 6.4 0.00 0.00 0.00 22 1022.5
20260501195519 22 310 3.2 4.8 0.00 0.00 0.00 22 1022.5
20260501195017 22 18 4.8 8.0 0.00 0.00 0.00 23 1022.5
20260501194535 22 53 8.0 11.3 0.00 0.00 0.00 23 1022.7
20260501194032 22 22 4.8 6.4 0.00 0.00 0.00 24 1022.7
20260501193529 21 26 3.2 4.8 0.00 0.00 0.00 24 1022.7
20260501193027 21 25 6.4 9.7 0.00 0.00 0.00 24 1022.7
20260501192525 21 86 6.4 9.7 0.00 0.00 0.00 23 1022.8
20260501192043 21 39 3.2 6.4 0.00 0.00 0.00 24 1022.9
20260501191521 21 88 11.3 12.9 0.00 0.00 0.00 22 1022.9
20260501191119 21 69 4.8 9.7 0.00 0.00 0.00 23 1023.1
20260501190537 21 55 4.8 6.4 0.00 0.00 0.00 24 1023.1
20260501190032 21 122 6.4 11.3 0.00 0.00 0.00 24 1023.1
20260501185529 21 348 4.8 8.0 0.00 0.00 0.00 24 1023.2
20260501185027 21 44 4.8 8.0 0.00 0.00 0.00 24 1023.2
20260501184525 20 89 8.0 9.7 0.00 0.00 0.00 24 1023.3
20260501184043 21 32 4.8 4.8 0.00 0.00 0.00 25 1023.3
20260501183521 20 8 1.6 6.4 0.00 0.00 0.00 26 1023.4
20260501183019 20 91 8.0 9.7 0.00 0.00 0.00 24 1023.4
20260501182517 20 284 6.4 9.7 0.00 0.00 0.00 26 1023.4
20260501182015 20 19 3.2 6.4 0.00 0.00 0.00 25 1023.4
20260501181520 20 71 6.4 11.3 0.00 0.00 0.00 25 1023.4
20260501181017 20 40 4.8 9.7 0.00 0.00 0.00 26 1023.5
20260501180616 20 56 6.4 11.3 0.00 0.00 0.00 26 1023.5
20260501180032 20 13 4.8 4.8 0.00 0.00 0.00 27 1023.7
20260501175550 20 52 6.4 8.0 0.00 0.00 0.00 26 1023.7
20260501175048 20 54 3.2 6.4 0.00 0.00 0.00 27 1023.7
20260501174526 20 20 4.8 9.7 0.00 0.00 0.00 27 1023.7
20260501174023 19 15 4.8 4.8 0.00 0.00 0.00 27 1023.7
20260501173522 20 71 4.8 6.4 0.00 0.00 0.00 27 1023.7
20260501173019 19 45 3.2 4.8 0.00 0.00 0.00 28 1023.7
20260501172518 19 32 4.8 6.4 0.00 0.00 0.00 28 1023.8
20260501172015 19 74 1.6 6.4 0.00 0.00 0.00 30 1023.9
20260501171532 19 322 3.2 6.4 0.00 0.00 0.00 29 1023.9
20260501171030 18 350 4.8 6.4 0.00 0.00 0.00 30 1023.9
20260501170528 18 78 4.8 8.0 0.00 0.00 0.00 30 1023.9
20260501170026 18 23 3.2 3.2 0.00 0.00 0.00 31 1023.9
20260501165523 18 12 4.8 6.4 0.00 0.00 0.00 31 1023.9
20260501165021 17 344 1.6 3.2 0.00 0.00 0.00 31 1023.9
20260501164520 17 35 3.2 6.4 0.00 0.00 0.00 33 1024.0
20260501164017 17 38 3.2 4.8 0.00 0.00 0.00 33 1024.0
20260501163515 17 90 8.0 11.3 0.00 0.00 0.00 32 1024.0
20260501162047 16 42 4.8 6.4 0.00 0.00 0.00 32 1023.9
20260501161544 16 70 6.4 9.7 0.00 0.00 0.00 32 1023.9
20260501161022 16 43 3.2 8.0 0.00 0.00 0.00 31 1023.9
20260501160521 16 57 3.2 6.4 0.00 0.00 0.00 31 1023.9
20260501160019 16 46 1.6 3.2 0.00 0.00 0.00 33 1023.7
20260501155557 16 72 3.2 6.4 0.00 0.00 0.00 33 1023.7
20260501155015 15 65 3.2 6.4 0.00 0.00 0.00 32 1023.7
20260501154519 15 12 3.2 3.2 0.00 0.00 0.00 31 1023.7
20260501154018 15 68 3.2 4.8 0.00 0.00 0.00 34 1023.7
20260501153516 15 105 3.2 6.4 0.00 0.00 0.00 33 1023.7
20260501153032 15 17 1.6 3.2 0.00 0.00 0.00 34 1023.7
20260501152530 14 63 3.2 4.8 0.00 0.00 0.00 34 1023.7
20260501152029 13 16 0.0 3.2 0.00 0.00 0.00 38 1023.7
20260501151527 13 99 3.2 4.8 0.00 0.00 0.00 36 1023.7
20260501151024 13 61 1.6 4.8 0.00 0.00 0.00 34 1023.7
20260501150523 12 43 1.6 4.8 0.00 0.00 0.00 35 1023.7
20260501150021 12 60 3.2 4.8 0.00 0.00 0.00 36 1023.5
20260501145017 11 101 3.2 6.4 0.00 0.00 0.00 36 1023.5